{"data":{"norad_id":62415,"intl_designator":"2024-249G","name":"STARLINK-11355 [DTC]","alt_names":[],"object_type":"PAYLOAD","status":"ACTIVE","operator":null,"country":"US","launch_date":"2024-12-23","launch_site_code":"AFETR","launch_vehicle":null,"mission":null,"orbit_class":"UNKNOWN","rcs_meters":null,"size_class":null,"mass_kg":null,"dimensions":null,"purposes":["comms"],"wikipedia_slug":null,"has_3d_model":false,"image_url":null,"decayed_at":null,"tle_current":{"epoch":"2026-09-21T21:52:44.781888Z","epoch_age_seconds":52563,"freshness":"FRESH","line1":"1 62415U 24249G   26264.91162942  .00130602  00000+0  10042-2 0  9993","line2":"2 62415  42.9995  64.6709 0001719 272.8399  87.2272 15.70868708100344","mean_motion":15.70868708,"eccentricity":0.0001719,"inclination_deg":42.9995,"raan_deg":64.6709,"arg_perigee_deg":272.8399,"mean_anomaly_deg":87.2272,"bstar":0.0010042,"rev_number":10034,"period_min":91.669023175933,"perigee_km":355.25534083467,"apogee_km":357.5706791281,"semimajor_km":6734.5500099814,"source":"CELESTRAK","updated_at":"2026-09-22T09:00:49.576484Z"}}}